This demonstration page uses our WeatherBlox Daily Observations layout. Learn more.

Left ArrowRight Arrow

Hourly Observations for January 5, 2017

Temp ( °F °C ) Dew Point ( °F °C ) Humidity (%) Winds ( mph kmh ) Pressure ( in mb ) Visibility ( mi km ) Precip ( " mm )
12:52 am 00:52 Cloudy 25 -3.9 10 -12.2 53 53 NNE 9 15 30.07 1018 10 16 0.00 0.00
1:44 am 01:44 Cloudy with Light Snow 23 -5 16 -9 74 74 NNE 14 22 30.12 1020 2 3 0.00 0.00
1:52 am 01:52 Mostly Cloudy with Light Snow 22 -5.6 16 -8.9 78 78 NNE 15 24 30.06 1018 1 2 0.00 0.00
2:04 am 02:04 Mostly Cloudy with Light Snow 21 -6 18 -8 86 86 NNE 12 19 30.12 1020 1 2 0.00 0.00
2:13 am 02:13 Mostly Cloudy with Light Snow 21 -6.1 17 -8.3 85 85 NNE 12 19 30.12 1020 1 1 0.02 0.51
2:52 am 02:52 Cloudy with Light Snow 20 -6.7 17 -8.3 89 89 NNE 13 20 30.06 1018 1 2 0.04 1.02
3:12 am 03:12 Cloudy with Light Snow 19 -7 16 -9 86 86 NNE 12 19 30.15 1021 2 2 0.00 0.00
3:34 am 03:34 Cloudy with Light Snow 19 -7 16 -9 86 86 NE 10 17 30.12 1020 3 5 0.00 0.00
3:43 am 03:43 Cloudy with Light Snow 20 -6.7 16 -8.9 85 85 NE 9 15 30.12 1020 3 5 0.01 0.25
3:52 am 03:52 Cloudy with Light Snow 20 -6.7 16 -8.9 85 85 NE 9 15 30.04 1017 4 6 0.01 0.25
4:52 am 04:52 Cloudy with Light Snow 19 -7.2 15 -9.4 84 84 NE 9 15 30.04 1017 6 10 0.00 0.00
5:52 am 05:52 Cloudy 19 -7.2 15 -9.4 84 84 NNE 10 17 30.05 1018 10 16 0.00 0.00
6:20 am 06:20 Cloudy 19 -7 16 -9 86 86 N 9 15 30.12 1020 10 16 0.00 0.00
6:33 am 06:33 Cloudy 19 -7 16 -9 86 86 N 12 19 30.12 1020 10 16 0.00 0.00
6:52 am 06:52 Cloudy with Light Snow 18 -7.8 14 -10 84 84 N 9 15 30.08 1019 9 14 0.00 0.00
7:33 am 07:33 Cloudy with Light Snow 18 -7.8 14 -10 84 84 N 9 15 30.15 1021 8 13 0.00 0.00
7:52 am 07:52 Cloudy with Light Snow 18 -7.8 14 -10 84 84 N 9 15 30.09 1019 7 11 0.00 0.00
8:48 am 08:48 Cloudy with Light Snow 18 -8 12 -11 79 79 N 10 17 30.18 1022 3 4 0.00 0.00
8:52 am 08:52 Cloudy with Light Snow 18 -7.8 14 -10 84 84 N 10 17 30.10 1019 2 3 0.00 0.00
9:20 am 09:20 Cloudy with Light Snow 19 -7 14 -10 79 79 NNE 13 20 30.18 1022 3 5 0.00 0.00
9:34 am 09:34 Cloudy with Light Snow 18 -8 12 -11 79 79 N 13 20 30.18 1022 5 8 0.00 0.00
9:52 am 09:52 Cloudy with Light Snow 19 -7.2 13 -10.6 77 77 N 12 19 30.13 1020 4 6 0.00 0.00
10:12 am 10:12 Cloudy with Light Snow 19 -7 12 -11 73 73 N 12 19 30.18 1022 3 4 0.00 0.00
10:52 am 10:52 Cloudy with Light Snow 19 -7.2 13 -10.6 77 77 N 8 13 30.13 1020 3 5 0.00 0.00
11:49 am 11:49 Cloudy with Light Snow 18 -8 12 -11 79 79 NNW 13 20 30.18 1022 2 3 0.00 0.00
11:52 am 11:52 Cloudy with Light Snow 18 -7.8 13 -10.6 81 81 NNW 14 22 30.11 1020 2 3 0.00 0.00
12:10 pm 12:10 Cloudy with Light Snow 18 -8 12 -11 79 79 NNW 16 26 30.18 1022 3 5 0.00 0.00
12:52 pm 12:52 Cloudy with Light Snow 18 -7.8 12 -11.1 77 77 N 14 22 30.11 1020 6 10 0.00 0.00
1:01 pm 13:01 Cloudy with Light Snow 18 -7.8 12 -11.1 77 77 NNW 14 22 30.18 1022 8 13 0.00 0.00
1:52 pm 13:52 Cloudy with Light Snow 17 -8.3 11 -11.7 77 77 NNW 14 22 30.14 1021 8 13 0.00 0.00
2:52 pm 14:52 Cloudy with Light Snow 17 -8.3 10 -12.2 74 74 NNW 15 24 30.15 1021 5 8 0.00 0.00
3:24 pm 15:24 Cloudy 18 -8 10 -12 73 73 NNW 12 19 30.21 1023 10 16 0.00 0.00
3:52 pm 15:52 Cloudy 17 -8.3 9 -12.8 70 70 NNW 12 19 30.16 1021 10 16 0.00 0.00
4:32 pm 16:32 Cloudy 17 -8.3 8 -13.3 68 68 N 12 19 30.21 1023 10 16 0.00 0.00
4:52 pm 16:52 Cloudy 17 -8.3 9 -12.8 70 70 NNW 13 20 30.16 1022 10 16 0.00 0.00
5:52 pm 17:52 Mostly Cloudy 16 -8.9 9 -12.8 74 74 NNW 12 19 30.19 1022 10 16 0.00 0.00
6:10 pm 18:10 Partly Cloudy 16 -9 9 -13 73 73 NNW 14 22 30.27 1025 10 16 0.00 0.00
6:52 pm 18:52 Clear 16 -8.9 8 -13.3 71 71 NNW 10 17 30.22 1023 10 16 0.00 0.00
7:52 pm 19:52 Clear 15 -9.4 7 -13.9 70 70 NNW 14 22 30.20 1023 10 16 0.00 0.00
8:52 pm 20:52 Clear 11 -11.7 3 -16.1 70 70 NNW 8 13 30.22 1023 10 16 0.00 0.00
9:52 pm 21:52 Mostly Clear 12 -11.1 3 -16.1 67 67 NW 9 15 30.26 1025 10 16 0.00 0.00
10:52 pm 22:52 Clear 12 -11.1 4 -15.6 70 70 NNW 7 11 30.25 1024 10 16 0.00 0.00
11:52 pm 23:52 Partly Cloudy 11 -11.7 3 -16.1 70 70 N 14 22 30.27 1025 10 16 0.00 0.00

Powered by AerisWeather